Hourly Data Report for August 19, 2021

TORONTO CITY
ONTARIO
Current Station Operator: ECCC - MSC

43°40'00.000" N
79°24'00.000" W
112.50 m
6158355
71508
XTO

Download Data

Hourly Data (August 2021)
Hourly Data Report for August 19, 2021
TIME
LST
Temp Definition
°C
Dew Point Definition
°C
Rel Hum Definition
%
Precip. Amount Definition
mm

Wind Dir Definition
10's deg

Wind Spd Definition
km/h
Visibility Definition
km
Stn Press Definition
kPa
Hmdx Definition


Wind Chill Definition


Weather Definition


00:00 22.5 20.5 88 0.0       100.45 30   LegendNANA
01:00 22.6 20.2 86 0.0       100.41 30   LegendNANA
02:00 22.4 20.2 87 0.0       100.40 30   LegendNANA
03:00 22.0 20.0 88 0.0       100.40 30   LegendNANA
04:00 21.2 19.3 89 0.0       100.38 28   LegendNANA
05:00 20.9 18.9 88 0.0       100.36 28   LegendNANA
06:00 21.2 18.7 85 0.0       100.37 28   LegendNANA
07:00 22.3 19.0 81 0.0       100.39 29   LegendNANA
08:00 24.2 19.6 76 0.0       100.38 31   LegendNANA
09:00 25.6 19.8 70 0.0       100.41 33   LegendNANA
10:00 27.5 19.3 61 0.0       100.40 35   LegendNANA
11:00 28.3 17.6 52 0.0       100.37 34   LegendNANA
12:00 29.9 18.3 50 0.0       100.34 36   LegendNANA
13:00 28.0 19.5 60 0.0       100.32 35   LegendNANA
14:00 28.4 18.5 55 0.0       100.29 35   LegendNANA
15:00 29.9 18.4 50 0.0       100.24 36   LegendNANA
16:00 29.0 18.5 53 0.0       100.20 35   LegendNANA
17:00 28.6 17.8 52 0.0       100.16 34   LegendNANA
18:00 27.6 17.9 56 0.0       100.13 34   LegendNANA
19:00 27.0 17.7 56 0.0       100.13 33   LegendNANA
20:00 25.8 17.4 60 0.0       100.18 31   LegendNANA
21:00 26.1 12.0 41 0.0       100.21 28   LegendNANA
22:00 24.0 12.8 50 0.0       100.23 27   LegendNANA
23:00 23.2 15.5 62 0.0       100.22 27   LegendNANA

Notes on Data Quality.

Legend

  • E = Estimated
  • M = Missing
  • NA = Not Available*
  • [empty] = Indicates an unobserved value
Date modified: